Overview Statistics Trail Chart Weather Telemetry Raw packets
 

This is the latest recevied weather packets stored in our database for station/object SA7AHC. If no packets are shown the sender has not sent any weather packets the latest 10 day(s).

<< 40 41 42 43 44 45 46 >>
Time Temp. Humidity Pressure Rain* Wind** Luminosity Snow
1788015570 17.78° C 80% 1007.8 hPa 0 mm - 90 W/m² -
1788014968 17.78° C 79% 1007.8 hPa 0 mm - 135 W/m² -
1788014369 18.33° C 79% 1007.8 hPa 0 mm - 199 W/m² -
1788013770 18.33° C 79% 1007.8 hPa 0 mm - 185 W/m² -
1788013169 18.33° C 78% 1007.5 hPa 0 mm - 132 W/m² -
1788012570 18.33° C 77% 1007.4 hPa 0 mm - 185 W/m² -
1788011970 18.89° C 76% 1007.4 hPa 0 mm - 399 W/m² -
1788011368 18.33° C 77% 1007.4 hPa 0 mm - 229 W/m² -
1788010766 19.44° C 75% 1007.5 hPa 0 mm - 251 W/m² -
1788010164 18.89° C 77% 1007.4 hPa 0 mm - 265 W/m² -
1788009564 18.89° C 78% 1007.5 hPa 0 mm - 246 W/m² -
1788008966 17.78° C 80% 1007.5 hPa 0 mm - 696 W/m² -
1788008360 18.33° C 78% 1007.5 hPa 0 mm - 241 W/m² -
1788007760 18.33° C 75% 1007.4 hPa 0 mm - 127 W/m² -
1788007160 20° C 72% 1007.4 hPa 0 mm - 76 W/m² -
1788006559 20.56° C 70% 1007.5 hPa 0 mm - 675 W/m² -
1788005957 20.56° C 69% 1007.6 hPa 0 mm - 708 W/m² -
1788005357 20° C 72% 1007.9 hPa 0 mm - 682 W/m² -
1788004758 18.89° C 76% 1007.8 hPa 0 mm - 538 W/m² -
1788004157 18.89° C 75% 1007.7 hPa 0 mm - 663 W/m² -
1788003558 18.89° C 77% 1007.7 hPa 0 mm - 392 W/m² -
1788002957 18.33° C 78% 1007.7 hPa 0 mm - 288 W/m² -
1788002354 18.33° C 78% 1007.7 hPa 0 mm - 299 W/m² -
1788001753 18.89° C 77% 1007.8 hPa 0 mm - 315 W/m² -
1788001152 17.78° C 79% 1007.7 hPa 0 mm - 596 W/m² -

* Rain latest hour (hover to see other rain measurements)
** Current wind speed in m/s (hover to see current wind gust speed)